Wrangell, AK

2:17 AM AKST on February 22, 2017 (GMT -0900)
Wrangell

Weather History for PAWG - March, 2013

Change the Weather History Date:

Friday, March 1, 2013

  Actual Average Record
Temperature  
Mean Temperature 40 °F -  
Max Temperature 44 °F 38 °F 49 °F (1968)
Min Temperature 37 °F 28 °F 10 °F (2011)
Degree Days  
Heating Degree Days 24    
Moisture  
Dew Point 33 °F    
Average Humidity 76    
Maximum Humidity 87    
Minimum Humidity 65    
Precipitation  
Precipitation 0.00 in - - ()
Sea Level Pressure  
Sea Level Pressure 30.01 in    
Wind  
Wind Speed 8 mph (SE)    
Max Wind Speed 14 mph    
Max Gust Speed 18 mph    
Visibility 10 miles    
Events      
Averages and records for this station are not official NWS values.
T = Trace of Precipitation, MM = Missing Value Source: NWS Daily Summary

Daily Weather History Graph

Daily Weather History Graph

Search for Another Location

Airport or City:

Trip Planner

Search our weather history database for the weather conditions in past years. The results will help you decide how hot, cold, wet, or windy it might be!

Date:

Astronomy

Mar. 01, 2013 Rise Set
Actual Time 6:40 AM AKST 5:23 PM AKST
Civil Twilight 6:02 AM AKST 6:01 PM AKST
Nautical Twilight 5:19 AM AKST 6:45 PM AKST
Astronomical Twilight 4:35 AM AKST 7:29 PM AKST
Moon 11:09 PM AKST (3/1) 7:35 AM AKST (3/1)
Length of Visible Light 11h 59m
Length of Day
10h 43m
Waning Gibbous, 82% of the Moon is Illuminated
Mar 1
Waning Gibbous
Mar 4
Last Quarter
Mar 11
New
Mar 19
First Quarter
Mar 27
Full

Hourly Weather History & Observations

Time (AKST) Temp. Windchill Dew Point Humidity Pressure Visibility Wind Dir Wind Speed Gust Speed Precip Events Conditions
12:16 AM 37.4 °F 34.9 °F 32.0 °F 81% 29.98 in 10.0 mi SSE 3.5 mph - N/A   Overcast
12:56 AM 39.2 °F 33.0 °F 33.8 °F 81% 29.98 in 10.0 mi SE 9.2 mph - N/A   Mostly Cloudy
1:16 AM 37.4 °F 32.8 °F 32.0 °F 81% 29.99 in 10.0 mi SE 5.8 mph - N/A   Overcast
1:36 AM 37.4 °F 32.1 °F 32.0 °F 81% 30.00 in 10.0 mi SE 6.9 mph - N/A   Overcast
1:56 AM 39.2 °F 33.6 °F 33.8 °F 81% 30.00 in 10.0 mi ESE 8.1 mph - N/A   Overcast
2:16 AM 39.2 °F 31.6 °F 30.2 °F 70% 29.99 in 10.0 mi SE 12.7 mph 18.4 mph N/A   Overcast
2:36 AM 39.2 °F 32.5 °F 30.2 °F 70% 29.99 in 10.0 mi SSE 10.4 mph 17.3 mph N/A   Scattered Clouds
2:56 AM 37.4 °F 28.9 °F 30.2 °F 75% 29.99 in 10.0 mi SE 13.8 mph 17.3 mph N/A   Partly Cloudy
3:16 AM 37.4 °F 29.3 °F 30.2 °F 75% 29.99 in 10.0 mi SSE 12.7 mph - N/A   Mostly Cloudy
3:36 AM 37.4 °F 29.3 °F 30.2 °F 75% 29.99 in 10.0 mi SE 12.7 mph - N/A   Mostly Cloudy
3:56 AM 39.2 °F 33.0 °F 30.2 °F 70% 30.00 in 10.0 mi SSE 9.2 mph - N/A   Overcast
4:16 AM 37.4 °F 29.8 °F 32.0 °F 81% 29.99 in 10.0 mi SE 11.5 mph - N/A   Overcast
4:36 AM 37.4 °F 32.8 °F 30.2 °F 75% 30.00 in 10.0 mi South 5.8 mph - N/A   Overcast
4:56 AM 37.4 °F 33.8 °F 30.2 °F 75% 30.00 in 10.0 mi WSW 4.6 mph - N/A   Overcast
5:16 AM 37.4 °F 32.1 °F 30.2 °F 75% 30.00 in 10.0 mi SSE 6.9 mph - N/A   Overcast
5:36 AM 39.2 °F 35.9 °F 30.2 °F 70% 30.00 in 10.0 mi SSE 4.6 mph - N/A   Overcast
5:56 AM 39.2 °F 34.2 °F 30.2 °F 70% 30.00 in 10.0 mi ESE 6.9 mph - N/A   Overcast
6:16 AM 39.2 °F 35.0 °F 30.2 °F 70% 30.01 in 10.0 mi SSE 5.8 mph - N/A   Overcast
6:36 AM 39.2 °F 35.9 °F 30.2 °F 70% 30.01 in 10.0 mi SSE 4.6 mph - N/A   Overcast
6:56 AM 39.2 °F - 30.2 °F 70% 30.01 in 10.0 mi Calm Calm - N/A   Overcast
7:16 AM 39.2 °F 35.0 °F 30.2 °F 70% 30.01 in 10.0 mi SE 5.8 mph - N/A   Overcast
7:36 AM 39.2 °F - 30.2 °F 70% 30.02 in 10.0 mi Calm Calm - N/A   Overcast
7:56 AM 39.2 °F 33.0 °F 33.8 °F 81% 30.02 in 10.0 mi East 9.2 mph - N/A   Overcast
8:16 AM 39.2 °F 31.2 °F 33.8 °F 81% 30.02 in 10.0 mi East 13.8 mph 18.4 mph N/A   Overcast
8:36 AM 39.2 °F 32.0 °F 33.8 °F 81% 30.03 in 10.0 mi East 11.5 mph - N/A   Overcast
8:56 AM 39.2 °F 31.6 °F 33.8 °F 81% 30.03 in 10.0 mi East 12.7 mph - N/A   Overcast
9:16 AM 39.2 °F 32.5 °F 33.8 °F 81% 30.04 in 10.0 mi East 10.4 mph - N/A   Overcast
9:36 AM 41.0 °F 34.3 °F 30.2 °F 65% 30.04 in 10.0 mi SE 11.5 mph - N/A   Overcast
9:56 AM 41.0 °F 33.9 °F 32.0 °F 70% 30.05 in 10.0 mi SE 12.7 mph - N/A   Overcast
10:16 AM 42.8 °F 37.0 °F 33.8 °F 70% 30.05 in 10.0 mi ESE 10.4 mph - N/A   Overcast
10:36 AM 41.0 °F 34.3 °F 33.8 °F 76% 30.05 in 10.0 mi East 11.5 mph - N/A   Overcast
10:56 AM 42.8 °F 37.0 °F 33.8 °F 70% 30.05 in 10.0 mi ESE 10.4 mph - N/A   Overcast
11:16 AM 42.8 °F 37.0 °F 32.0 °F 66% 30.05 in 10.0 mi SE 10.4 mph - N/A   Mostly Cloudy
11:36 AM 42.8 °F 37.0 °F 33.8 °F 70% 30.05 in 10.0 mi East 10.4 mph - N/A   Overcast
11:56 AM 42.8 °F 36.6 °F 33.8 °F 70% 30.05 in 10.0 mi East 11.5 mph - N/A   Mostly Cloudy
12:16 PM 42.8 °F 37.0 °F 33.8 °F 70% 30.05 in 10.0 mi East 10.4 mph - N/A   Mostly Cloudy
12:36 PM 42.8 °F 37.0 °F 32.0 °F 66% 30.05 in 10.0 mi SE 10.4 mph - N/A   Mostly Cloudy
12:56 PM 42.8 °F 38.0 °F 32.0 °F 66% 30.04 in 10.0 mi SE 8.1 mph - N/A   Mostly Cloudy
1:16 PM 42.8 °F 37.5 °F 32.0 °F 66% 30.04 in 10.0 mi SE 9.2 mph - N/A   Mostly Cloudy
1:36 PM 42.8 °F 39.3 °F 32.0 °F 66% 30.03 in 10.0 mi SSE 5.8 mph - N/A   Mostly Cloudy
1:56 PM 44.6 °F 42.2 °F 33.8 °F 66% 30.03 in 10.0 mi ENE 4.6 mph - N/A   Overcast
2:16 PM 42.8 °F 39.3 °F 33.8 °F 70% 30.02 in 10.0 mi East 5.8 mph - N/A   Overcast
2:36 PM 42.8 °F 39.3 °F 35.6 °F 76% 30.02 in 10.0 mi East 5.8 mph - N/A   Overcast
2:56 PM 42.8 °F 40.1 °F 35.6 °F 76% 30.02 in 10.0 mi East 4.6 mph - N/A   Mostly Cloudy
3:16 PM 42.8 °F 40.1 °F 32.0 °F 66% 30.02 in 10.0 mi East 4.6 mph - N/A   Mostly Cloudy
3:36 PM 42.8 °F 41.1 °F 33.8 °F 70% 30.01 in 10.0 mi ENE 3.5 mph - N/A   Mostly Cloudy
3:56 PM 42.8 °F 41.1 °F 33.8 °F 70% 30.01 in 10.0 mi ENE 3.5 mph - N/A   Mostly Cloudy
4:16 PM 42.8 °F - 33.8 °F 70% 30.02 in 10.0 mi Calm Calm - N/A   Mostly Cloudy
4:36 PM 42.8 °F 39.3 °F 33.8 °F 70% 30.02 in 10.0 mi SSE 5.8 mph - N/A   Mostly Cloudy
4:56 PM 42.8 °F 41.1 °F 33.8 °F 70% 30.01 in 10.0 mi ESE 3.5 mph - N/A   Overcast
5:16 PM 41.0 °F 38.0 °F 33.8 °F 76% 30.01 in 10.0 mi ESE 4.6 mph - N/A   Overcast
5:36 PM 41.0 °F - 33.8 °F 76% 30.01 in 10.0 mi Calm Calm - N/A   Overcast
5:56 PM 41.0 °F 38.0 °F 33.8 °F 76% 30.01 in 10.0 mi SSE 4.6 mph - N/A   Mostly Cloudy
6:16 PM 39.2 °F 34.2 °F 33.8 °F 81% 30.01 in 10.0 mi SSE 6.9 mph - N/A   Mostly Cloudy
6:36 PM 39.2 °F 34.2 °F 33.8 °F 81% 30.01 in 10.0 mi SE 6.9 mph - N/A   Mostly Cloudy
6:56 PM 39.2 °F 34.2 °F 33.8 °F 81% 30.01 in 10.0 mi SE 6.9 mph - N/A   Mostly Cloudy
7:16 PM 39.2 °F 34.2 °F 33.8 °F 81% 30.01 in 10.0 mi SE 6.9 mph - N/A   Mostly Cloudy
7:36 PM 39.2 °F 34.2 °F 33.8 °F 81% 30.01 in 10.0 mi SE 6.9 mph - N/A   Mostly Cloudy
7:56 PM 37.4 °F 31.4 °F 33.8 °F 87% 30.01 in 10.0 mi SE 8.1 mph - N/A   Overcast
8:16 PM 37.4 °F 32.1 °F 33.8 °F 87% 30.01 in 10.0 mi SE 6.9 mph - N/A   Overcast
8:36 PM 37.4 °F 31.4 °F 33.8 °F 87% 30.00 in 10.0 mi SE 8.1 mph - N/A   Overcast
8:56 PM 37.4 °F 32.1 °F 32.0 °F 81% 30.00 in 10.0 mi SE 6.9 mph - N/A   Partly Cloudy
9:16 PM 37.4 °F 31.4 °F 32.0 °F 81% 30.00 in 10.0 mi SE 8.1 mph - N/A   Partly Cloudy
9:36 PM 37.4 °F 32.1 °F 32.0 °F 81% 30.00 in 10.0 mi SE 6.9 mph - N/A   Partly Cloudy
9:56 PM 37.4 °F 32.1 °F 33.8 °F 87% 30.00 in 10.0 mi SE 6.9 mph - N/A   Mostly Cloudy
10:16 PM 37.4 °F 32.8 °F 32.0 °F 81% 30.01 in 10.0 mi SE 5.8 mph - N/A   Mostly Cloudy
10:36 PM 37.4 °F 32.1 °F 33.8 °F 87% 30.00 in 10.0 mi SE 6.9 mph - N/A   Mostly Cloudy
10:56 PM 37.4 °F 32.1 °F 33.8 °F 87% 30.00 in 10.0 mi SE 6.9 mph - N/A   Mostly Cloudy
11:16 PM 37.4 °F 31.4 °F 32.0 °F 81% 30.00 in 10.0 mi SE 8.1 mph - N/A   Overcast
11:36 PM 37.4 °F 30.3 °F 32.0 °F 81% 30.00 in 10.0 mi ESE 10.4 mph - N/A   Overcast
11:56 PM 37.4 °F 30.3 °F 33.8 °F 87% 29.99 in 10.0 mi East 10.4 mph - N/A   Overcast